Weather History for Jaipur, India

Change the Weather History Date:

Sunday, December 22, 2013

  Actual Average Record
Temperature  
Mean Temperature 61 °F -  
Max Temperature 70 °F - - ()
Min Temperature 52 °F - - ()
Degree Days  
Heating Degree Days 4    
Growing Degree Days 11 (Base 50)    
Moisture  
Dew Point 52 °F    
Average Humidity 77    
Maximum Humidity 100    
Minimum Humidity 45    
Precipitation  
Precipitation 0.00 in - - ()
Sea Level Pressure  
Sea Level Pressure 30.07 in    
Wind  
Wind Speed 3 mph ()    
Max Wind Speed 8 mph    
Max Gust Speed -    
Visibility 0.7 miles    
Events Fog    
T = Trace of Precipitation, MM = Missing Value Source: Averaged Metar Reports

Daily Weather History Graph

Daily Weather History Graph

Search for Another Location

Airport:

Trip Planner

Search our weather history database for the weather conditions in past years. The results will help you decide how hot, cold, wet, or windy it might be!

Date:

Astronomy

Dec. 22, 2013 Rise Set
Actual Time 7:11 AM IST 5:38 PM IST
Civil Twilight 6:46 AM IST 6:04 PM IST
Nautical Twilight 6:17 AM IST 6:33 PM IST
Astronomical Twilight 5:48 AM IST 7:01 PM IST
Moon 10:02 PM IST (12/22) 10:15 AM IST (12/22)
Length of Visible Light 11h 18m
Length of Day
10h 27m
Waning Gibbous, 80% of the Moon is Illuminated
Dec 22
Waning Gibbous
Dec 25
Last Quarter
Jan 1
New
Jan 8
First Quarter
Jan 16
Full

Hourly Weather History & Observations

Time (IST) Temp. Dew Point Humidity Pressure Visibility Wind Dir Wind Speed Gust Speed Precip Events Conditions
12:00 AM 55.4 °F 55.4 °F 100% 30.06 in 0.3 mi East 6.9 mph - N/A Fog Fog
1:00 AM 55.4 °F 55.4 °F 100% 30.04 in 0.3 mi East 8.1 mph - N/A Fog Fog
2:00 AM 55.4 °F 55.4 °F 100% 30.04 in 0.3 mi East 6.9 mph - N/A Fog Fog
2:30 AM 56 °F 55 °F 95% 29.94 in 0 mi East 4.6 mph - - Fog Partial Fog
3:00 AM 55.4 °F 53.6 °F 94% 30.04 in 0.3 mi East 4.6 mph - N/A Fog Fog
4:00 AM 55.4 °F 53.6 °F 94% 30.04 in 0.3 mi East 5.8 mph - N/A Fog Fog
5:30 AM 55 °F 53 °F 91% 30.03 in 0 mi Calm Calm - - Fog Patches of Fog
6:00 AM 55.4 °F 53.6 °F 94% 30.06 in 0.5 mi Calm Calm - N/A Fog Shallow Fog
6:30 AM 55.4 °F 51.8 °F 88% 30.06 in 0.6 mi Variable 2.3 mph - N/A   Partly Cloudy
7:00 AM 55.4 °F 51.8 °F 88% 30.06 in 0.6 mi Calm Calm - N/A   Partly Cloudy
8:00 AM 55.4 °F 50.0 °F 82% 30.09 in 0.7 mi Calm Calm - N/A   Partly Cloudy
8:30 AM 55 °F 51 °F 81% 30.09 in 1 mi Calm Calm - -   Mist
9:00 AM 57.2 °F 51.8 °F 82% 30.12 in 0.7 mi Calm Calm - N/A   Mist
10:00 AM 59.0 °F 51.8 °F 77% 30.12 in 0.8 mi WNW 3.5 mph - N/A   Mist
11:00 AM 62.6 °F 51.8 °F 68% 30.12 in 0.9 mi Variable 1.2 mph - N/A   Mist
11:30 AM 63 °F 52 °F 59% 30.09 in 1 mi East 2.3 mph - -   Smoke
12:00 PM 64.4 °F 50.0 °F 59% 30.12 in 0.9 mi Variable 1.2 mph - N/A   Smoke
1:00 PM 66.2 °F 50.0 °F 56% 30.09 in 0.9 mi Variable 3.5 mph - N/A   Smoke
2:00 PM 68.0 °F 50.0 °F 52% 30.06 in 0.9 mi Variable 3.5 mph - N/A   Smoke
2:30 PM 68 °F 52 °F 45% 30.02 in 1 mi SW 2.3 mph - -   Smoke
3:00 PM 68.0 °F 50.0 °F 52% 30.04 in 0.9 mi Calm Calm - N/A   Smoke
4:00 PM 68.0 °F 51.8 °F 56% 30.04 in 0.9 mi ESE 5.8 mph - N/A   Smoke
5:00 PM 66.2 °F 51.8 °F 60% 30.04 in 0.9 mi Variable 3.5 mph - N/A   Smoke
5:30 PM 64 °F 53 °F 59% 30.02 in 1 mi ESE 2.3 mph - -   Smoke
6:00 PM 62.6 °F 53.6 °F 72% 30.06 in 0.9 mi East 6.9 mph - N/A   Smoke
7:00 PM 59.0 °F 51.8 °F 77% 30.09 in 0.9 mi NNE 6.9 mph - N/A   Smoke
8:00 PM 57.2 °F 51.8 °F 82% 30.09 in 0.9 mi Variable 2.3 mph - N/A   Smoke
8:30 PM 56 °F 52 °F 81% 30.06 in 1 mi NE 6.9 mph - -   Mist
9:00 PM 55.4 °F 51.8 °F 88% 30.12 in 0.8 mi NE 3.5 mph - N/A   Scattered Clouds
10:00 PM 55.4 °F 50.0 °F 82% 30.12 in 0.8 mi NNE 3.5 mph - N/A   Scattered Clouds
11:00 PM 55.4 °F 50.0 °F 82% 30.12 in 0.8 mi NE 3.5 mph - N/A   Scattered Clouds
11:30 PM 55 °F 51 °F 80% 30.11 in 1 mi NE 2.3 mph - -   Mist